Volver al catálogo

BREEZE-M DEB

ActivoHEO
NORAD 34230·DEBRIS·🇷🇺 Russia

Lanzado Feb 28, 2006 desde Baikonur Cosmodrome

Loading…

Próximos Pases (próximas 24 horas)

TLE

ActualizadoSource: Space-Track

Época: Sep 13, 2026, 10:06 UTC

1 34230U 06006AV  26256.42100232  .00001133  00000-0  13775-2 0  9992
2 34230  51.7801 342.9163 4986908 132.7189 281.8266  5.44627326 44649

Sigue BREEZE-M DEB en tiempo real con AllMySat

Download on the App Store